RH
18 18 20 20 23 31 35 29 38 45 62 61 58 66 76 67 51 75 69 54 66 65 74 79 77 83 75 67 65 67 60 75 75 63 45 36 36 35
17 17 16 18 20 24 33 38 32 34 43 51 60 61 58 65 54 43 45 48 61 41 30 32 30 29 26 25 24 25 24 25 22 20 20 21 20 19
14 16 16 16 16 19 23 30 38 40 37 36 36 45 65 65 61 58 48 39 38 36 33 31 30 28 27 26 25 24 25 20 18 19 22 24 24 23
10 12 14 14 14 14 16 20 25 29 42 46 42 39 36 33 31 29 28 27 27 28 27 26 25 24 24 24 26 26 26 28 28 26 23 23 27 35
9 9 9 11 12 13 13 13 16 19 23 28 41 48 47 46 44 42 42 41 39 37 35 34 33 31 28 27 26 26 27 27 33 40 45 46 45 40
9 8 8 8 9 10 12 12 12 13 16 17 19 23 27 29 28 28 27 27 28 30 40 48 48 46 43 43 42 42 42 40 40 40 38 31 26 24
8 8 8 8 8 8 9 10 12 12 12 14 15 16 16 18 18 18 18 18 19 21 25 30 35 34 29 26 25 25 25 24 23 22 21 20 19 18
8 8 8 8 8 8 8 9 10 12 12 12 13 14 16 16 17 18 18 17 16 16 17 17 18 19 19 18 17 17 17 16 16 15 16 16 16 15
8 8 8 8 9 9 9 10 10 12 12 13 13 14 16 18 20 21 22 20 18 18 18 17 17 17 16 16 16 16 17 17 17 18 18 17 17 17
8 8 8 9 10 10 10 11 12 13 14 15 15 15 17 20 25 27 27 25 22 21 21 20 20 20 19 19 20 21 22 21 21 22 23 24 23 21
8 9 10 11 12 12 12 12 13 16 16 18 19 19 20 23 29 32 32 30 25 24 24 23 25 25 25 24 25 26 26 28 29 30 31 30 28 24
8 9 11 12 14 14 15 15 16 18 19 21 22 23 23 25 32 37 37 35 31 27 30 28 29 30 29 31 33 34 36 38 39 40 39 37 32 27
9 11 14 14 15 16 17 18 18 18 20 24 27 28 29 32 37 42 43 42 39 36 34 35 35 37 37 38 38 40 44 45 50 50 46 38 30 28
11 13 17 17 17 18 20 20 20 18 24 27 31 34 34 35 40 45 46 46 45 42 41 42 41 43 46 51 53 58 59 58 60 56 47 40 39 42
13 16 18 18 18 20 22 23 24 26 29 31 36 39 39 42 47 47 46 47 48 49 49 49 51 54 56 57 54 63 66 67 59 50 49 50 49 51
17 17 18 18 17 20 26 32 35 36 36 37 42 42 42 46 47 47 48 49 49 53 57 60 62 60 60 61 65 69 65 63 58 55 56 57 54 52
20 22 27 31 33 34 36 38 40 36 32 33 31 31 32 34 41 45 47 57 63 67 68 71 65 66 73 76 74 76 73 69 64 62 60 58 58 52
30 29 29 29 29 29 29 28 28 29 28 28 29 30 31 35 40 40 43 53 57 62 67 72 76 80 86 86 85 82 76 72 68 65 60 57 59 54
69 67 67 67 67 68 67 66 61 49 41 39 36 48 40 42 52 62 54 55 58 64 70 82 87 89 87 88 88 82 77 73 68 66 63 60 57 52
66 64 62 61 60 60 60 60 62 66 70 66 52 49 61 91 95 95 96 96 86 77 86 97 98 94 91 92 88 81 78 75 70 68 66 64 57 52
72 69 63 59 57 57 60 66 70 73 77 82 80 69 65 76 83 95 96 96 96 93 96 100 98 94 94 93 88 87 80 71 69 70 68 63 57 45
77 58 47 46 50 58 60 62 70 76 85 94 96 96 96 96 95 96 96 96 96 97 96 96 97 97 94 94 91 88 84 77 71 70 68 60 47 44
34 37 43 43 48 57 65 70 72 77 82 89 94 95 93 94 96 96 95 96 96 97 96 96 96 96 96 94 92 90 83 82 79 76 68 53 49 45
Wind_Speed
18 19 20 21 22 23 21 20 14 11 8 14 12 13 14 14 8 10 16 15 18 21 23 25 26 27 28 30 31 32 36 37 38 40 42 43 43 42
18 19 19 19 20 21 20 17 16 14 15 16 14 14 16 16 13 14 14 17 22 23 25 28 31 33 35 35 36 37 39 41 42 42 41 40 39 37
20 20 20 19 18 19 19 18 16 15 14 14 13 13 11 14 15 16 17 20 22 23 25 27 29 31 32 33 34 33 33 34 36 36 35 34 33 31
20 21 21 21 19 18 19 18 17 16 15 14 14 15 15 15 14 14 16 17 18 21 23 25 26 27 27 29 30 31 33 32 30 29 29 28 27 28
22 23 23 22 21 20 19 19 18 17 17 15 15 15 16 16 17 17 17 17 18 19 21 23 24 25 25 26 26 25 26 26 26 28 29 29 30 32
23 24 24 24 23 22 21 20 18 18 18 16 16 16 16 17 18 18 18 18 20 20 21 22 23 23 24 24 26 27 27 29 30 30 31 31 32 32
26 25 26 26 25 25 23 22 21 20 20 20 19 18 18 18 19 20 21 22 21 21 22 22 22 24 24 24 26 26 27 28 28 29 30 31 32 32
29 29 29 28 27 27 26 25 23 22 22 22 21 21 21 22 21 22 22 23 22 23 24 25 26 26 27 28 28 27 28 29 30 31 31 32 33 33
31 31 31 31 30 30 28 27 27 25 24 24 23 23 23 24 24 24 25 24 23 23 23 24 26 27 27 28 28 28 28 29 31 32 33 34 34 34
34 34 32 32 33 32 30 29 28 27 26 25 25 24 24 25 25 26 26 26 26 25 25 24 26 27 28 28 28 29 30 31 32 32 33 34 34 34
36 37 35 34 35 33 31 30 30 29 28 27 26 26 26 26 26 27 27 26 26 26 26 26 27 28 28 29 29 30 31 32 32 33 34 34 34 33
39 40 39 37 35 34 32 31 29 30 29 28 28 27 28 28 29 29 28 28 28 27 26 27 27 29 29 29 29 30 31 31 32 32 33 34 33 33
42 40 40 39 36 35 34 32 30 31 30 29 29 29 29 29 30 30 29 29 28 28 28 29 27 28 29 30 30 31 32 32 32 32 33 33 33 32
40 38 38 38 36 35 34 32 31 31 30 31 31 31 31 32 31 31 31 30 29 29 28 29 29 30 30 29 30 30 32 32 31 30 31 33 33 33
37 35 35 35 34 32 32 30 30 30 32 33 32 32 33 33 32 31 32 31 30 30 30 30 30 31 30 29 29 29 29 30 30 30 31 33 33 33
33 31 31 31 30 29 29 30 30 32 33 34 33 34 34 33 32 32 32 32 31 31 31 31 31 30 29 28 28 27 29 28 30 29 29 31 35 31
28 26 25 26 27 28 29 30 32 32 33 33 33 34 33 33 33 32 33 33 33 32 32 32 30 28 27 27 26 28 28 28 29 28 29 26 30 30
26 23 23 25 26 28 29 31 32 33 33 34 34 33 32 33 33 33 33 33 33 33 32 31 29 28 27 27 28 27 28 28 28 29 28 23 24 31
26 24 25 25 27 29 31 33 34 35 37 36 35 34 34 33 34 34 32 31 31 31 30 29 29 29 28 26 27 28 28 27 28 26 26 26 25 25
30 31 31 32 34 36 38 40 40 39 39 40 39 37 36 36 38 36 32 31 32 31 29 28 28 29 27 26 24 30 27 27 26 24 26 27 26 23
35 36 38 39 40 41 42 42 44 44 43 41 40 39 40 40 37 36 32 31 31 29 28 28 30 28 27 25 25 27 30 27 24 24 25 24 22 20
38 38 39 40 39 39 40 39 40 40 41 42 42 43 42 42 41 37 34 32 32 30 29 30 29 28 27 26 26 26 25 28 27 26 24 23 20 18
35 35 35 36 37 38 37 37 37 38 39 40 40 40 40 39 34 33 32 32 32 31 30 30 29 28 27 26 27 26 24 26 26 26 23 20 19 19
Wind_Direction
333 336 337 338 343 345 354 354 349 344 327 319 318 314 312 307 300 267 278 271 248 254 257 259 262 264 265 264 267 269 272 273 275 277 279 281 281 279
328 330 332 335 339 341 344 349 346 337 318 306 291 289 294 304 298 281 273 265 269 267 266 267 269 270 271 272 272 271 271 273 274 275 277 277 276 276
321 322 325 329 333 334 336 338 340 337 336 330 324 316 298 289 288 284 278 277 277 277 274 270 270 271 272 273 274 275 275 274 276 277 277 278 280 279
315 316 319 323 326 328 329 330 329 327 325 321 316 312 304 295 289 283 282 279 274 271 270 270 270 271 273 275 279 278 277 278 279 280 279 280 279 280
314 314 315 316 318 320 321 321 321 320 318 318 311 304 301 301 299 296 291 285 281 276 274 274 275 278 278 279 279 280 282 283 283 283 285 285 285 285
311 312 312 312 313 312 312 312 312 311 309 307 306 304 303 301 301 299 297 295 291 286 279 276 277 278 279 280 280 280 281 281 281 282 282 283 284 286
307 308 308 309 309 307 305 305 305 304 303 303 302 299 297 296 295 295 296 296 294 291 287 285 281 281 281 279 278 279 279 279 280 281 282 282 283 284
303 305 306 306 305 304 302 301 300 299 298 298 297 297 297 296 296 295 294 293 291 288 287 288 286 285 285 284 283 283 282 283 284 285 284 283 282 281
301 301 302 303 303 302 301 299 298 296 295 295 295 295 294 294 295 296 297 294 291 288 285 284 284 284 284 284 285 285 284 283 282 282 282 282 283 284
299 299 301 301 300 299 298 296 294 294 292 292 292 291 290 289 291 293 293 293 292 289 286 284 283 282 283 283 283 284 284 284 284 284 285 285 285 285
295 297 299 298 295 296 295 293 292 291 291 292 292 292 290 289 289 289 289 288 285 285 286 287 285 285 285 286 287 288 288 289 290 289 288 286 285 285
293 294 294 292 290 291 291 289 289 287 289 289 290 289 289 289 289 289 289 288 286 284 283 283 285 287 288 289 290 290 290 290 290 289 287 285 284 284
292 292 290 289 289 287 287 288 286 285 286 286 285 286 285 284 285 287 286 285 283 284 287 287 287 287 288 290 289 290 290 291 290 290 289 287 287 287
290 289 287 287 288 287 287 287 284 284 284 284 286 286 286 287 287 288 287 286 285 286 287 287 287 286 286 286 289 290 291 291 290 289 289 289 289 290
287 284 283 283 285 287 287 284 284 283 281 283 284 285 284 284 286 286 286 284 283 284 285 285 285 285 286 286 286 286 286 288 290 290 290 289 289 290
282 281 281 283 285 284 284 284 282 281 281 284 285 284 285 285 285 285 284 283 283 283 283 283 283 283 283 283 286 286 288 289 288 289 291 292 292 291
281 282 280 279 278 279 278 278 278 279 281 282 284 284 285 286 284 282 282 282 282 281 282 281 280 280 281 285 287 289 290 292 292 292 292 291 288 289
281 278 276 277 278 277 277 276 275 277 278 277 278 280 283 284 284 285 284 282 282 282 281 278 278 279 281 284 287 289 292 293 294 295 294 287 287 293
285 281 279 278 278 279 280 280 280 279 277 277 276 280 281 282 284 284 285 287 285 281 277 275 275 277 281 285 288 290 292 297 297 294 293 295 294 291
292 291 290 288 287 286 285 284 282 281 280 279 277 275 276 278 281 281 280 281 280 278 273 272 275 276 282 283 287 290 293 296 294 291 293 297 297 293
292 293 294 293 291 288 284 281 280 280 279 278 278 276 275 275 277 278 279 276 275 277 273 274 274 280 282 283 287 288 295 296 291 293 295 295 290 284
294 294 292 291 290 288 286 283 283 281 279 277 276 277 276 271 268 270 270 273 270 272 271 272 275 277 280 283 286 288 291 292 294 296 296 293 287 279
292 291 292 292 292 291 290 286 282 279 278 277 276 275 277 277 275 269 265 269 268 267 267 270 271 275 276 282 285 288 288 289 293 297 294 289 287 286